{"data":{"norad_id":53800,"epoch":"2026-09-20T14:21:10.109088Z","epoch_age_seconds":75581,"freshness":"FRESH","line1":"1 53800U 22111AD  26263.59803367  .00048960  00000+0  41818-3 0  9994","line2":"2 53800  53.2063  13.1467 0002188  54.9445 305.1778 15.69027246224594","mean_motion":15.69027246,"eccentricity":0.0002188,"inclination_deg":53.2063,"raan_deg":13.1467,"arg_perigee_deg":54.9445,"mean_anomaly_deg":305.1778,"bstar":0.00041818,"rev_number":22459,"period_min":91.776608957624,"perigee_km":360.20656723957,"apogee_km":363.15591170116,"semimajor_km":6739.8182394704,"source":"CELESTRAK","updated_at":"2026-09-21T09:00:32.995945Z"}}